This demonstration page uses our WeatherBlox Daily Observations layout. Learn more.

38.88101, -77.10428

Hourly Observations for March 2, 2015

Temp ( °F °C ) Dew Point ( °F °C ) Humidity (%) Winds ( mph kmh ) Pressure ( in mb ) Visibility ( mi km ) Precip ( " mm )
12:34 am 00:34 Mostly Cloudy with Fog 34 1 30 -1 87 87 SSW 6 9 30.18 1022 0.25 0.402335 0 0
12:52 am 00:52 Mostly Cloudy with Fog 34 1.1 31 -0.6 89 89 Calm 30.18 1022 0.25 0.402335 0 0
1:16 am 01:16 Mostly Cloudy with Mist and Fog 34 1 30 -1 87 87 Calm 30.18 1022 1 1.60934 0 0
1:28 am 01:28 Mostly Cloudy with Fog 34 1 30 -1 87 87 S 5 7 30.18 1022 0.25 0.402335 0 0
1:38 am 01:38 Mostly Cloudy with Fog 34 1 30 -1 87 87 Calm 30.18 1022 0.25 0.402335 0 0
1:52 am 01:52 Mostly Cloudy with Fog 34 1.1 31 -0.6 89 89 Calm 30.15 1021 0.25 0.402335 0 0
1:56 am 01:56 Mostly Cloudy with Fog 34 1 30 -1 87 87 Calm 30.15 1021 1 1.60934 0 0
2:16 am 02:16 Mostly Cloudy with Fog 34 1 30 -1 87 87 Calm 30.15 1021 0.25 0.402335 0 0
2:25 am 02:25 Mostly Cloudy with Fog 34 1 30 -1 87 87 Calm 30.15 1021 1 1.60934 0 0
2:52 am 02:52 Mostly Cloudy with Fog 34 1.1 31 -0.6 89 89 S 5 7 30.13 1020 1 1.60934 0 0
3:52 am 03:52 Mostly Cloudy with Fog 34 1.1 31 -0.6 89 89 Calm 30.08 1019 0.25 0.402335 0 0
4:01 am 04:01 Mostly Cloudy with Fog 34 1 30 -1 87 87 SSW 8 13 30.09 1019 0.5 0.80467 0 0
4:07 am 04:07 Cloudy with Mist and Fog 34 1 30 -1 87 87 SSW 9 15 30.09 1019 0.75 1.207005 0 0
4:12 am 04:12 Cloudy with Mist and Fog 34 1 30 -1 87 87 SSW 7 11 30.09 1019 1 1.60934 0 0
4:44 am 04:44 Cloudy with Mist and Fog 34 1 30 -1 87 87 SSW 6 9 30.12 1020 2 3.21868 0 0
4:52 am 04:52 Cloudy with Mist and Fog 34 1.1 31 -0.6 89 89 SW 6 9 30.11 1020 2.5 4.02335 0 0
5:35 am 05:35 Cloudy with Mist and Fog 34 1 30 -1 87 87 W 5 7 30.12 1020 3 4.82802 0 0
5:52 am 05:52 Cloudy with Mist and Fog 34 1.1 31 -0.6 89 89 W 3 6 30.12 1020 3 4.82802 0 0
6:37 am 06:37 Cloudy with Mist and Fog 36 2 30 -1 81 81 W 5 7 30.15 1021 6 9.65604 0 0
6:52 am 06:52 Cloudy with Mist and Fog 35 1.7 31 -0.6 85 85 Calm 30.14 1021 3 4.82802 0 0
7:12 am 07:12 Cloudy with Mist and Fog 34 1 30 -1 87 87 Calm 30.15 1021 2.5 4.02335 0 0
7:52 am 07:52 Cloudy with Mist and Fog 35 1.7 31 -0.6 85 85 NNE 5 7 30.19 1022 4 6.43736 0 0
8:52 am 08:52 Mostly Cloudy 39 3.9 31 -0.6 73 73 NNW 10 17 30.24 1024 10 16.0934 0 0
9:52 am 09:52 Mostly Cloudy 39 3.9 31 -0.6 73 73 VRB 5 7 30.27 1025 10 16.0934 0 0
10:52 am 10:52 Partly Cloudy 43 6.1 30 -1.1 60 60 NNW 14 22 30.28 1025 10 16.0934 0 0
11:52 am 11:52 Partly Cloudy 45 7.2 24 -4.4 44 44 NNW 18 30 30.29 1026 10 16.0934 0 0
12:52 pm 12:52 Partly Cloudy 45 7.2 21 -6.1 39 39 N 12 19 30.3 1026 10 16.0934 0 0
1:52 pm 13:52 Partly Cloudy 45 7 18 -8 34 34 NW 21 33 30.27 1025 10 16.0934 0 0
2:52 pm 14:52 Partly Cloudy 45 7.2 18 -7.8 34 34 NNW 21 33 30.29 1026 10 16.0934 0 0
3:52 pm 15:52 Mostly Sunny 44 6.7 16 -8.9 32 32 NNW 17 28 30.31 1026 10 16.0934 0 0
4:52 pm 16:52 Mostly Sunny 44 6.7 16 -8.9 32 32 NNW 16 26 30.32 1027 10 16.0934 0 0
5:52 pm 17:52 Mostly Sunny 41 5 16 -8.9 36 36 NNW 16 26 30.35 1028 10 16.0934 0 0
6:52 pm 18:52 Clear 39 3.9 16 -8.9 39 39 NNW 14 22 30.37 1029 10 16.0934 0 0
7:52 pm 19:52 Clear 37 2.8 16 -8.9 42 42 NNW 10 17 30.41 1030 10 16.0934 0 0
8:52 pm 20:52 Mostly Clear 36 2.2 16 -8.9 44 44 NNW 9 15 30.42 1030 10 16.0934 0 0
9:52 pm 21:52 Mostly Clear 35 1.7 16 -8.9 46 46 N 7 11 30.43 1031 10 16.0934 0 0
10:52 pm 22:52 Mostly Clear 34 1.1 16 -8.9 48 48 NNW 8 13 30.45 1031 10 16.0934 0 0
11:52 pm 23:52 Partly Cloudy 33 0.6 15 -9.4 47 47 N 8 13 30.43 1031 10 16.0934 0 0

Powered by AerisWeather